Hourly Weather Lukaszow

Today, 7 May, Friday

Time Temperature Precipitation Wind Pressure Humidity
00:00 +6°C° 0.9 mm 2 mps 735 mmHg 92%
01:00 +5°C° 0.9 mm 2 mps 735 mmHg 95%
02:00 +6°C° 0.7 mm 1 mps 735 mmHg 95%
03:00 +6°C° 0.7 mm 1 mps 734 mmHg 95%
04:00 +5°C° 0.7 mm 0 mps 734 mmHg 96%
05:00 +6°C° 0.5 mm 1 mps 734 mmHg 95%
06:00 +6°C° 0.5 mm 1 mps 734 mmHg 95%
07:00 +5°C° 0.5 mm 2 mps 735 mmHg 95%
08:00 +5°C° 0.3 mm 2 mps 735 mmHg 95%
09:00 +4°C° 0.3 mm 3 mps 736 mmHg 95%
10:00 +4°C° 0.3 mm 3 mps 736 mmHg 94%
11:00 +4°C° 0.3 mm 4 mps 737 mmHg 95%
12:00 +3°C° 0.3 mm 5 mps 737 mmHg 95%
13:00 +2°C° 0.3 mm 6 mps 738 mmHg 95%
14:00 +4°C° 0.1 mm 6 mps 738 mmHg 86%
15:00 +5°C° 0.1 mm 6 mps 739 mmHg 76%
16:00 +6°C° 0.1 mm 7 mps 739 mmHg 66%
17:00 +5°C° 0.2 mm 6 mps 740 mmHg 70%
18:00 +4°C° 0.2 mm 6 mps 741 mmHg 75%
19:00 +3°C° 0.2 mm 5 mps 741 mmHg 79%
20:00 +2°C° 0 mm 5 mps 742 mmHg 82%
21:00 +3°C° 0 mm 4 mps 742 mmHg 85%
22:00 +1°C° 0 mm 4 mps 743 mmHg 88%
23:00 +1°C° 0 mm 4 mps 743 mmHg 88%

Tomorrow, 8 May, Saturday

Time Temperature Precipitation Wind Pressure Humidity
00:00 +1°C° 0 mm 4 mps 744 mmHg 89%
01:00 0°C° 0 mm 4 mps 744 mmHg 89%
02:00 0°C° 0 mm 4 mps 744 mmHg 90%
03:00 0°C° 0 mm 4 mps 744 mmHg 90%
04:00 0°C° 0 mm 4 mps 745 mmHg 90%
05:00 +1°C° 0 mm 4 mps 745 mmHg 85%
06:00 +4°C° 0 mm 4 mps 745 mmHg 79%
07:00 +5°C° 0 mm 5 mps 746 mmHg 73%
08:00 +6°C° 0 mm 5 mps 746 mmHg 65%
09:00 +8°C° 0 mm 5 mps 746 mmHg 57%
10:00 +9°C° 0 mm 5 mps 746 mmHg 49%
11:00 +10°C° 0 mm 5 mps 746 mmHg 47%
12:00 +12°C° 0 mm 5 mps 746 mmHg 45%
13:00 +12°C° 0 mm 5 mps 745 mmHg 43%
14:00 +12°C° 0 mm 4 mps 745 mmHg 45%
15:00 +12°C° 0 mm 4 mps 745 mmHg 47%
16:00 +13°C° 0 mm 3 mps 745 mmHg 49%
17:00 +11°C° 0 mm 3 mps 745 mmHg 55%
18:00 +10°C° 0 mm 2 mps 745 mmHg 62%
19:00 +10°C° 0 mm 1 mps 745 mmHg 69%
20:00 +8°C° 0 mm 2 mps 745 mmHg 69%
21:00 +7°C° 0 mm 2 mps 745 mmHg 70%
22:00 +5°C° 0 mm 3 mps 745 mmHg 70%
23:00 +5°C° 0 mm 3 mps 745 mmHg 70%

Day after tomorrow, 9 May, Sunday

Time Temperature Precipitation Wind Pressure Humidity
00:00 +4°C° 0 mm 3 mps 744 mmHg 70%
01:00 +4°C° 0 mm 3 mps 744 mmHg 70%
02:00 +4°C° 0 mm 3 mps 744 mmHg 71%
03:00 +4°C° 0 mm 3 mps 744 mmHg 73%
04:00 +5°C° 0 mm 3 mps 743 mmHg 74%
05:00 +7°C° 0 mm 3 mps 743 mmHg 71%
06:00 +9°C° 0 mm 3 mps 743 mmHg 68%
07:00 +11°C° 0 mm 3 mps 743 mmHg 65%
08:00 +13°C° 0 mm 3 mps 743 mmHg 60%
09:00 +16°C° 0 mm 3 mps 743 mmHg 56%
10:00 +18°C° 0 mm 4 mps 743 mmHg 51%
11:00 +19°C° 0 mm 4 mps 742 mmHg 51%
12:00 +20°C° 0 mm 4 mps 742 mmHg 50%
13:00 +21°C° 0 mm 5 mps 742 mmHg 50%
14:00 +21°C° 0 mm 5 mps 742 mmHg 52%
15:00 +21°C° 0 mm 5 mps 741 mmHg 54%
16:00 +21°C° 0 mm 5 mps 741 mmHg 57%
17:00 +19°C° 0 mm 5 mps 741 mmHg 60%
18:00 +16°C° 0 mm 5 mps 741 mmHg 63%
19:00 +14°C° 0 mm 5 mps 741 mmHg 67%
20:00 +13°C° 0 mm 5 mps 741 mmHg 66%
21:00 +13°C° 0 mm 5 mps 741 mmHg 66%
22:00 +12°C° 0 mm 5 mps 741 mmHg 66%
23:00 +12°C° 0 mm 5 mps 740 mmHg 66%

10 May, Monday

Time Temperature Precipitation Wind Pressure Humidity
00:00 +10°C° 0 mm 5 mps 740 mmHg 66%
01:00 +10°C° 0 mm 5 mps 740 mmHg 67%
02:00 +10°C° 0 mm 4 mps 740 mmHg 68%
03:00 +10°C° 0 mm 4 mps 740 mmHg 69%
04:00 +10°C° 0 mm 4 mps 740 mmHg 70%
05:00 +11°C° 0 mm 4 mps 739 mmHg 70%
06:00 +12°C° 0 mm 5 mps 739 mmHg 69%
07:00 +13°C° 0 mm 6 mps 739 mmHg 69%
08:00 +15°C° 0 mm 5 mps 739 mmHg 66%
09:00 +16°C° 0 mm 5 mps 739 mmHg 62%
10:00 +19°C° 0 mm 5 mps 739 mmHg 59%
11:00 +20°C° 0 mm 4 mps 740 mmHg 57%
12:00 +22°C° 0 mm 3 mps 740 mmHg 54%
13:00 +24°C° 0 mm 3 mps 740 mmHg 52%
14:00 +24°C° 0 mm 3 mps 740 mmHg 54%
15:00 +24°C° 0 mm 3 mps 740 mmHg 55%
16:00 +25°C° 0 mm 3 mps 740 mmHg 56%
17:00 +22°C° 0 mm 3 mps 740 mmHg 64%
18:00 +20°C° 0 mm 3 mps 740 mmHg 72%
19:00 +18°C° 0 mm 2 mps 740 mmHg 79%
20:00 +17°C° 0 mm 3 mps 740 mmHg 82%
21:00 +16°C° 0 mm 3 mps 740 mmHg 85%
22:00 +14°C° 0 mm 3 mps 740 mmHg 89%
23:00 +14°C° 0 mm 3 mps 739 mmHg 88%

11 May, Tuesday

Time Temperature Precipitation Wind Pressure Humidity
00:00 +13°C° 0 mm 3 mps 739 mmHg 88%
01:00 +13°C° 0 mm 3 mps 738 mmHg 88%
02:00 +13°C° 0 mm 3 mps 738 mmHg 88%
03:00 +13°C° 0 mm 3 mps 738 mmHg 89%
04:00 +12°C° 0 mm 3 mps 737 mmHg 89%
05:00 +14°C° 0 mm 3 mps 738 mmHg 85%
06:00 +16°C° 0 mm 3 mps 738 mmHg 81%
07:00 +17°C° 0 mm 4 mps 738 mmHg 78%
08:00 +18°C° 0 mm 3 mps 738 mmHg 73%
09:00 +20°C° 0 mm 3 mps 738 mmHg 69%
10:00 +21°C° 0 mm 3 mps 738 mmHg 64%
11:00 +22°C° 0 mm 3 mps 738 mmHg 63%
12:00 +22°C° 0 mm 3 mps 738 mmHg 61%
13:00 +24°C° 0 mm 3 mps 738 mmHg 60%
14:00 +24°C° 0 mm 3 mps 737 mmHg 62%
15:00 +23°C° 0 mm 4 mps 737 mmHg 64%
16:00 +23°C° 0 mm 4 mps 737 mmHg 66%
17:00 +22°C° 0 mm 4 mps 737 mmHg 70%
18:00 +21°C° 0 mm 4 mps 736 mmHg 74%
19:00 +20°C° 0 mm 4 mps 736 mmHg 79%
20:00 +19°C° 0 mm 4 mps 736 mmHg 79%
21:00 +18°C° 0 mm 4 mps 735 mmHg 79%
22:00 +18°C° 0 mm 4 mps 735 mmHg 79%
23:00 +16°C° 0 mm 5 mps 735 mmHg 78%

12 May, Wednesday

Time Temperature Precipitation Wind Pressure Humidity
00:00 +16°C° 0 mm 5 mps 735 mmHg 77%
01:00 +16°C° 0 mm 5 mps 734 mmHg 76%
02:00 +16°C° 0 mm 5 mps 734 mmHg 76%
03:00 +17°C° 0 mm 4 mps 734 mmHg 76%
04:00 +17°C° 0 mm 4 mps 734 mmHg 76%
05:00 +17°C° 0 mm 4 mps 734 mmHg 76%
06:00 +18°C° 0 mm 4 mps 734 mmHg 75%
07:00 +18°C° 0 mm 4 mps 734 mmHg 74%
08:00 +20°C° 0 mm 4 mps 734 mmHg 70%
09:00 +21°C° 0 mm 5 mps 734 mmHg 66%
10:00 +22°C° 0 mm 5 mps 734 mmHg 62%
11:00 +22°C° 0.1 mm 5 mps 734 mmHg 61%
12:00 +23°C° 0.1 mm 5 mps 734 mmHg 60%
13:00 +23°C° 0.1 mm 5 mps 734 mmHg 60%
14:00 +22°C° 1.1 mm 5 mps 733 mmHg 70%
15:00 +20°C° 1.1 mm 4 mps 733 mmHg 80%
16:00 +18°C° 1.1 mm 3 mps 733 mmHg 90%
17:00 +16°C° 3.7 mm 3 mps 733 mmHg 92%
18:00 +14°C° 3.7 mm 4 mps 732 mmHg 95%
19:00 +13°C° 3.7 mm 4 mps 732 mmHg 97%
20:00 +13°C° 5.2 mm 4 mps 733 mmHg 98%
21:00 +12°C° 5.2 mm 4 mps 733 mmHg 98%
22:00 +12°C° 5.2 mm 3 mps 734 mmHg 98%
23:00 +12°C° 0.7 mm 3 mps 733 mmHg 98%
Show more

We Need Your Consent

Meteoprog and our Service Providers may store and access personal data such as cookies, device identifiers or other similar technologies on your device and process such data to personalise content and ads, as well as provide social media features and to analyse the traffic.

  • Store and/or access information on your device

    Cookies, device identifiers or other information can be stored or accessed on your device for the purposes indicated above.

  • Personalised ads and content, ad and content measurement, audience insights, and products development

    Ads and content can be personalised based on a profile. More data can be added to better personalise ads and content. Ad and content performance can be measured. Insights about the audience who saw the ads and content can be derived. Such data can be used to develop or improve user’s experience, systems and software.

By clicking ‘I Agree’ you will allow the use of indicated cookies, device identifiers, web beacons or other similar technologies. Your settings can be changed in the browser on your device.

For certain purposes, legitimate interests may be relied on, rather than consent. You can read more about this in our Privacy and Cookie Policy.